Location: Madrid
(40.4167°N, 3.7036°W)
Time: 14:07:13
(UTC+00:00)

ISS - Pass Details

Date: 11 July 2024
Orbit: 410 x 424 km, 51.6° (Epoch: 14 July)

Event Time Altitude Azimuth Distance (km) Brightness Sun altitude
Rises 23:23:35 0° 299° (WNW) 2,340 0.6 -26.3°
Reaches altitude 10° 23:26:45 10° 332° (NNW) 1,481 0.0 -26.4°
Maximum altitude 23:28:09 12° 357° (N) 1,360 -0.2 -26.5°
Drops below altitude 10° 23:29:33 10° 22° (NNE) 1,483 -0.3 -26.5°
Sets 23:32:43 0° 55° (NE) 2,348 0.3 -26.7°
